Temp
22 22 22 21 24 24 21 25 25 25 26 24 25 25 25 23 24 24 19 20 21 19 19 18 19 18 19 19 19 19 19 18 18 18 18 19 19 20 20 20 20 19 19 19 19 19 19 19 19
22 21 21 21 24 24 23 23 24 25 26 24 25 24 24 23 19 19 17 20 20 19 18 19 19 19 19 19 19 19 18 18 18 18 18 19 19 19 20 20 19 19 19 19 19 19 19 18 18
21 21 21 23 23 25 25 25 25 25 24 25 25 24 23 20 18 17 18 20 20 19 19 20 19 19 19 19 19 18 18 18 18 18 18 18 19 19 19 19 19 19 19 19 19 18 18 18 18
22 21 21 25 25 25 25 26 25 25 25 24 24 24 19 18 19 19 19 20 19 20 20 20 20 20 20 19 19 18 18 18 18 18 18 19 19 19 19 19 19 18 18 18 18 18 18 18 18
23 22 26 26 26 26 26 26 25 26 25 24 24 23 20 19 19 20 20 20 19 19 20 20 20 20 20 20 19 19 19 19 18 18 19 19 19 19 19 19 18 18 18 18 18 17 17 17 17
24 23 27 27 27 26 26 26 26 25 24 23 23 22 19 19 20 20 20 19 19 20 19 20 20 20 20 20 20 19 19 19 19 19 19 19 19 19 19 18 18 18 18 18 17 17 17 17 17
25 26 27 27 26 26 27 25 26 25 24 24 22 22 18 19 19 20 20 19 19 19 19 20 20 20 20 20 20 20 19 19 19 19 19 19 19 18 18 18 18 18 17 17 17 17 17 16 16
24 26 27 27 26 27 27 25 25 25 24 22 22 23 21 18 20 20 19 19 18 19 19 20 20 19 20 20 20 20 20 19 19 19 19 18 18 18 18 18 17 17 17 17 17 17 17 17 16
25 27 27 28 27 28 26 26 24 23 23 23 23 22 22 22 20 19 18 17 19 19 19 19 20 20 20 20 20 20 20 19 19 19 18 18 17 17 17 17 17 17 17 17 17 17 17 17 17
27 26 28 28 28 28 26 26 25 25 23 23 22 22 22 22 21 19 18 18 19 20 20 18 19 20 20 19 19 19 18 19 19 18 18 18 18 18 17 17 17 17 17 17 17 17 17 17 16
25 27 28 29 28 28 27 26 25 25 25 24 23 20 20 21 20 18 18 19 20 21 20 20 20 19 20 19 19 18 18 18 19 18 18 18 18 18 18 17 17 17 17 17 17 15 16 16 16
27 28 28 29 28 27 27 26 26 25 26 25 24 24 20 20 20 20 20 20 21 20 21 20 20 20 19 19 19 19 18 19 19 18 18 18 18 18 18 18 17 17 17 16 16 16 16 16 17
29 29 29 28 29 28 26 27 27 26 24 25 23 23 21 20 20 20 21 21 21 21 21 21 20 20 20 19 19 19 19 19 19 18 18 18 18 18 18 18 18 17 17 17 17 17 17 17 17
27 28 28 28 30 28 28 26 26 24 24 25 22 21 21 21 20 19 21 22 22 22 21 21 21 20 20 20 20 20 19 19 19 18 18 18 18 18 18 18 18 18 17 17 17 17 17 17 17
27 28 29 29 29 29 27 27 26 24 23 23 22 21 21 20 19 22 23 22 22 22 22 21 21 21 20 20 20 19 19 19 19 19 18 18 18 18 18 18 18 18 17 17 17 17 17 17 17
27 27 28 29 28 27 28 30 24 23 24 23 22 21 21 20 22 22 22 22 22 22 22 21 21 21 20 20 20 19 19 19 19 19 18 18 18 18 18 18 18 18 18 18 17 17 17 17 17
27 28 27 29 28 28 28 28 24 22 23 23 22 22 21 21 20 23 23 23 22 22 22 22 21 21 21 20 20 19 19 19 19 19 18 18 19 19 19 18 18 18 18 18 18 17 17 17 17
27 27 27 26 29 28 28 27 25 23 23 24 23 22 22 21 21 22 23 23 22 22 22 22 21 21 21 20 20 19 19 19 19 19 19 19 19 19 19 18 18 18 18 18 18 18 18 17 17
26 26 26 28 27 27 26 27 25 23 23 23 24 23 23 22 21 21 22 22 22 22 21 22 22 21 21 21 20 19 20 19 19 19 19 19 19 19 19 19 18 18 18 18 18 18 18 18 17
27 27 28 28 27 27 25 26 24 24 24 23 23 23 23 22 21 20 20 20 21 21 22 22 22 21 21 21 21 20 20 20 19 19 19 19 19 19 19 19 19 18 18 18 18 18 18 18 18
27 27 28 28 27 25 25 27 24 24 23 23 23 22 22 21 21 20 19 20 20 20 21 21 21 21 21 21 20 20 20 19 19 19 19 19 19 19 19 19 18 18 18 18 18 18 18 18 18
29 28 27 28 28 28 25 28 24 24 24 24 24 24 23 23 21 21 20 21 22 21 22 21 21 21 20 21 20 20 20 20 20 20 19 18 19 19 19 19 19 18 18 18 18 18 18 18 18
30 27 28 27 28 27 26 27 27 22 25 26 25 23 23 23 21 23 20 21 22 22 22 22 21 21 20 20 20 20 19 19 20 19 19 18 19 19 19 19 19 18 18 18 18 18 18 18 18
27 28 27 25 27 29 25 25 29 27 26 26 24 23 23 22 22 22 21 20 21 22 22 22 21 20 19 19 19 18 19 19 19 19 18 19 19 19 19 19 19 18 18 18 18 18 18 18 18
28 29 29 29 29 28 25 25 29 27 25 25 23 22 23 22 23 21 20 19 20 21 22 22 20 20 20 19 19 19 19 18 18 19 19 19 18 18 19 19 19 19 19 19 18 18 18 18 19
29 30 29 27 28 29 25 28 30 25 24 22 21 21 22 22 21 22 21 21 21 21 22 21 20 19 18 17 18 17 18 18 19 19 18 19 19 19 19 19 18 19 18 18 18 18 18 18 18
26 29 27 27 23 27 27 28 28 23 23 23 23 23 22 22 21 22 23 22 21 21 21 20 20 19 18 15 16 17 17 19 19 19 18 19 19 19 19 19 19 19 18 18 18 18 18 18 18
29 26 29 27 27 27 27 26 29 27 25 24 24 22 22 21 21 23 23 22 21 21 20 20 19 18 18 16 16 17 17 18 19 19 19 18 19 19 19 19 19 19 19 18 18 18 18 18 18
28 28 25 27 26 28 27 28 27 26 25 24 23 22 21 21 21 23 23 22 22 21 20 20 20 19 19 18 17 17 17 18 19 19 19 19 19 19 19 19 19 19 19 19 18 18 18 18 18
27 27 27 28 26 24 25 28 25 23 23 23 22 21 21 21 20 21 23 23 22 21 20 20 20 20 19 19 19 19 19 19 19 19 19 19 20 20 19 19 19 19 19 19 19 18 18 19 19
Height
1526 1525 1524 1523 1528 1526 1541 1531 1524 1524 1525 1526 1527 1530 1530 1532 1533 1539 1536 1540 1545 1549 1553 1558 1562 1564 1566 1569 1571 1574 1575 1578 1580 1582 1583 1585 1586 1587 1588 1588 1589 1589 1591 1591 1592 1592 1593 1593 1594
1526 1526 1526 1524 1529 1536 1540 1529 1529 1525 1525 1526 1527 1529 1530 1532 1534 1533 1536 1541 1546 1550 1554 1558 1562 1565 1567 1569 1572 1575 1576 1578 1581 1582 1584 1585 1587 1588 1589 1590 1590 1591 1592 1593 1593 1593 1594 1594 1595
1527 1527 1528 1526 1532 1536 1534 1527 1526 1527 1527 1526 1527 1529 1531 1535 1534 1535 1537 1541 1547 1551 1554 1557 1561 1565 1567 1570 1572 1575 1577 1579 1581 1583 1585 1586 1587 1588 1589 1590 1591 1592 1593 1593 1594 1594 1595 1596 1596
1527 1528 1528 1528 1533 1529 1527 1523 1526 1527 1528 1528 1528 1531 1534 1534 1535 1536 1539 1544 1548 1552 1556 1558 1562 1565 1568 1570 1572 1575 1577 1579 1581 1583 1585 1586 1588 1589 1589 1591 1591 1592 1592 1593 1595 1595 1596 1596 1597
1528 1527 1525 1528 1529 1525 1524 1523 1525 1526 1527 1529 1529 1532 1535 1536 1536 1538 1541 1545 1549 1553 1556 1560 1563 1565 1568 1571 1573 1575 1577 1579 1581 1583 1584 1586 1587 1589 1589 1590 1591 1592 1593 1593 1595 1596 1596 1597 1598
1529 1528 1530 1532 1528 1524 1523 1523 1525 1526 1528 1529 1530 1532 1537 1536 1538 1540 1544 1547 1551 1553 1557 1560 1563 1566 1568 1571 1572 1575 1577 1579 1580 1582 1584 1585 1586 1588 1588 1589 1590 1591 1591 1592 1594 1596 1596 1596 1596
1528 1526 1528 1529 1529 1525 1522 1524 1526 1526 1527 1529 1530 1533 1538 1537 1539 1541 1545 1550 1552 1555 1557 1560 1563 1566 1568 1570 1572 1574 1576 1578 1580 1582 1583 1584 1585 1586 1587 1588 1589 1590 1591 1591 1592 1593 1595 1594 1594
1528 1527 1527 1527 1531 1527 1521 1524 1524 1526 1528 1529 1530 1532 1537 1536 1538 1542 1545 1550 1553 1555 1557 1560 1563 1565 1568 1570 1572 1574 1576 1577 1579 1581 1582 1583 1584 1585 1586 1587 1587 1588 1588 1589 1590 1592 1593 1593 1593
1527 1528 1530 1527 1527 1520 1520 1521 1525 1526 1527 1529 1530 1531 1531 1533 1537 1541 1545 1549 1551 1554 1556 1559 1562 1564 1567 1570 1571 1574 1575 1577 1578 1581 1582 1584 1584 1584 1586 1585 1585 1586 1587 1588 1588 1589 1590 1591 1592
1529 1532 1524 1521 1519 1518 1521 1522 1524 1526 1527 1529 1529 1529 1530 1533 1535 1539 1542 1545 1547 1550 1554 1558 1560 1563 1566 1569 1571 1572 1574 1576 1577 1580 1581 1582 1582 1582 1584 1584 1581 1583 1585 1587 1587 1588 1588 1589 1590
1530 1529 1522 1518 1518 1518 1521 1522 1524 1524 1525 1523 1522 1525 1528 1531 1535 1539 1542 1543 1545 1549 1552 1555 1558 1561 1564 1567 1569 1571 1572 1574 1576 1577 1578 1580 1580 1581 1581 1583 1581 1583 1583 1585 1585 1587 1587 1587 1588
1529 1523 1522 1519 1519 1518 1519 1520 1521 1521 1521 1521 1522 1525 1528 1531 1533 1536 1539 1542 1545 1547 1551 1554 1557 1559 1562 1565 1567 1569 1571 1573 1574 1576 1577 1577 1578 1579 1580 1581 1581 1581 1582 1582 1584 1585 1585 1586 1587
1525 1523 1521 1519 1517 1518 1518 1518 1518 1518 1520 1521 1523 1525 1528 1532 1534 1537 1540 1543 1545 1547 1550 1553 1555 1558 1561 1563 1565 1568 1570 1571 1573 1574 1575 1575 1577 1578 1578 1579 1580 1580 1580 1581 1581 1583 1583 1584 1585
1525 1523 1520 1517 1515 1516 1517 1517 1519 1518 1517 1519 1522 1524 1527 1530 1533 1537 1539 1541 1544 1547 1549 1552 1555 1557 1560 1562 1564 1566 1568 1570 1571 1572 1573 1574 1576 1577 1578 1577 1578 1578 1578 1579 1579 1581 1582 1582 1583
1525 1522 1518 1517 1515 1515 1517 1517 1518 1517 1517 1518 1520 1524 1526 1529 1532 1532 1535 1539 1543 1546 1549 1551 1553 1556 1558 1561 1563 1565 1567 1568 1569 1571 1572 1573 1574 1576 1577 1577 1577 1577 1577 1577 1578 1579 1579 1581 1582
1526 1526 1529 1517 1516 1515 1518 1516 1518 1516 1517 1517 1519 1522 1524 1526 1527 1531 1534 1537 1541 1544 1546 1549 1552 1554 1557 1559 1562 1564 1566 1567 1568 1570 1572 1573 1573 1574 1575 1576 1576 1576 1575 1575 1576 1577 1577 1578 1580
1531 1538 1532 1521 1516 1516 1517 1518 1518 1515 1517 1517 1519 1522 1524 1525 1526 1527 1530 1534 1538 1541 1545 1547 1550 1552 1556 1558 1560 1562 1564 1566 1567 1568 1570 1571 1572 1573 1573 1574 1575 1575 1574 1574 1575 1575 1576 1577 1578
1541 1537 1531 1532 1518 1517 1518 1517 1516 1518 1519 1519 1520 1521 1521 1523 1522 1525 1529 1532 1535 1538 1542 1545 1547 1550 1554 1556 1558 1560 1562 1563 1564 1565 1567 1568 1570 1571 1572 1573 1573 1573 1573 1573 1574 1574 1575 1575 1576
1534 1535 1535 1522 1519 1519 1521 1517 1517 1519 1519 1519 1519 1518 1519 1520 1522 1524 1526 1530 1532 1534 1538 1540 1543 1546 1550 1553 1555 1557 1558 1561 1562 1563 1564 1565 1567 1568 1570 1571 1572 1572 1573 1573 1574 1574 1574 1574 1574
1531 1533 1527 1521 1519 1519 1523 1517 1520 1520 1519 1519 1519 1518 1517 1516 1517 1521 1523 1525 1528 1530 1532 1534 1538 1541 1545 1549 1552 1555 1557 1558 1560 1561 1562 1563 1564 1566 1567 1569 1570 1570 1572 1572 1573 1573 1573 1573 1573
1527 1529 1525 1525 1521 1523 1524 1520 1521 1519 1518 1517 1517 1517 1516 1514 1514 1514 1516 1520 1524 1526 1528 1532 1534 1537 1540 1544 1549 1551 1554 1555 1557 1558 1559 1560 1562 1564 1565 1567 1568 1569 1570 1571 1571 1572 1571 1571 1572
1526 1518 1521 1521 1525 1531 1526 1531 1523 1519 1516 1515 1514 1514 1514 1513 1512 1511 1511 1514 1519 1521 1524 1527 1528 1532 1534 1539 1544 1547 1549 1551 1553 1555 1556 1558 1560 1561 1562 1564 1565 1567 1567 1568 1569 1569 1569 1568 1569
1517 1517 1519 1520 1524 1527 1529 1532 1517 1523 1517 1512 1514 1514 1513 1512 1509 1507 1508 1510 1514 1518 1521 1523 1525 1526 1529 1533 1537 1542 1546 1548 1550 1552 1554 1555 1555 1557 1559 1560 1562 1563 1564 1565 1566 1566 1567 1566 1567
1517 1517 1521 1524 1522 1530 1534 1536 1514 1515 1514 1511 1514 1514 1513 1511 1509 1506 1504 1506 1510 1514 1518 1520 1520 1521 1524 1527 1530 1536 1539 1542 1545 1548 1550 1552 1552 1554 1556 1557 1557 1558 1560 1561 1562 1563 1563 1564 1564
1516 1518 1532 1535 1533 1536 1533 1535 1513 1509 1511 1513 1514 1515 1513 1512 1508 1506 1505 1506 1509 1512 1515 1516 1516 1517 1519 1520 1523 1526 1532 1537 1542 1544 1547 1547 1548 1550 1551 1551 1553 1554 1555 1556 1557 1558 1560 1561 1561
1513 1513 1529 1551 1543 1532 1530 1526 1507 1511 1513 1515 1514 1514 1513 1512 1509 1506 1505 1505 1507 1511 1513 1514 1514 1515 1515 1516 1516 1517 1525 1534 1537 1540 1542 1543 1544 1546 1547 1547 1549 1550 1551 1551 1553 1555 1558 1558 1559
1518 1518 1518 1530 1543 1536 1529 1516 1506 1512 1513 1515 1515 1513 1514 1513 1509 1506 1506 1505 1506 1509 1512 1514 1514 1515 1515 1510 1511 1519 1524 1531 1535 1537 1539 1538 1540 1542 1544 1544 1545 1546 1548 1548 1550 1553 1555 1556 1557
1506 1513 1521 1523 1543 1546 1530 1529 1515 1509 1511 1513 1515 1514 1514 1511 1509 1507 1506 1506 1508 1510 1511 1512 1513 1515 1516 1513 1517 1524 1526 1529 1531 1534 1534 1535 1536 1538 1539 1539 1540 1542 1544 1545 1548 1550 1552 1553 1553
1511 1513 1523 1521 1529 1533 1538 1524 1506 1508 1510 1512 1515 1514 1513 1512 1510 1508 1507 1507 1509 1510 1511 1512 1514 1515 1518 1519 1522 1524 1525 1529 1530 1532 1531 1531 1532 1534 1535 1535 1536 1538 1539 1541 1543 1545 1547 1548 1549
1509 1515 1514 1521 1533 1536 1534 1521 1506 1511 1514 1515 1515 1514 1513 1513 1512 1511 1510 1509 1509 1510 1512 1513 1515 1515 1516 1518 1520 1523 1526 1527 1528 1528 1526 1526 1527 1529 1530 1530 1531 1533 1535 1536 1537 1539 1541 1543 1544
Wind_Speed
4 4 2 4 1 4 2 2 2 1 4 3 9 3 2 4 1 2 12 31 30 32 30 29 26 23 21 20 20 20 20 20 17 14 13 12 12 11 10 11 11 10 8 7 7 6 7 8 9
2 5 3 2 2 2 1 3 2 2 2 7 10 5 2 3 2 8 23 30 32 31 29 29 27 23 20 19 19 19 19 20 18 14 12 11 11 10 9 9 9 8 8 8 8 8 9 9 9
2 4 1 2 2 2 2 2 2 2 4 6 4 5 3 2 3 20 23 32 32 30 29 28 27 23 20 20 21 20 20 19 17 15 13 12 11 10 9 8 7 7 8 7 7 7 9 9 9
2 2 2 2 5 1 1 3 2 6 3 2 5 6 5 1 5 20 32 34 32 29 28 27 25 22 20 20 22 23 21 19 18 16 15 13 12 11 9 6 7 8 8 7 7 7 9 9 7
2 1 1 2 2 2 3 6 6 4 1 3 1 3 5 4 12 24 29 34 32 29 28 26 23 21 20 19 20 23 22 20 19 17 16 14 13 12 11 9 9 9 9 8 8 8 8 9 9
2 1 2 3 2 1 3 6 5 3 2 3 5 7 3 6 15 25 28 31 29 29 27 25 22 20 19 20 20 20 20 19 19 17 15 14 13 12 10 10 9 10 10 10 10 11 11 10 11
1 1 0 0 1 1 3 6 5 4 5 2 10 4 4 10 16 24 29 29 28 27 26 25 23 21 19 19 20 19 19 18 18 16 14 13 12 12 11 11 10 10 11 11 11 10 10 11 12
1 1 2 1 2 2 4 8 2 7 6 7 8 4 6 16 20 24 28 27 27 27 24 24 24 23 21 20 19 19 18 18 17 16 14 12 12 12 10 11 11 11 11 10 10 9 9 10 10
1 2 3 1 5 2 7 7 4 3 8 5 6 3 9 22 25 26 25 25 28 26 24 23 23 23 21 20 20 18 18 17 17 15 14 14 13 11 11 10 10 11 10 9 9 8 10 9 10
1 1 3 2 2 3 5 6 5 5 7 5 7 7 13 25 27 28 28 28 28 28 26 24 23 23 22 21 21 20 19 19 18 14 14 13 12 11 10 8 13 11 11 9 9 9 10 9 8
3 3 4 3 7 3 5 6 4 4 7 12 17 17 22 28 26 25 25 27 28 27 26 26 24 22 22 22 22 20 20 18 15 14 14 14 12 11 10 9 12 7 10 12 10 6 8 9 9
3 6 4 7 4 4 7 5 6 12 4 3 12 16 23 29 29 28 26 25 27 27 25 26 24 22 23 21 21 19 18 16 15 13 15 14 12 11 8 8 9 8 7 8 10 9 9 8 9
2 7 11 11 11 4 8 7 7 8 9 7 12 16 22 27 25 23 23 23 25 25 24 24 24 23 22 22 21 19 17 15 13 12 12 12 11 11 11 9 9 8 7 7 9 9 11 10 10
6 12 17 9 8 5 7 4 5 2 3 6 15 18 21 26 26 22 25 26 25 23 23 21 22 23 23 21 20 18 16 15 14 13 9 9 9 8 5 5 7 7 9 9 8 9 11 12 11
7 7 7 4 5 3 3 5 3 3 7 11 14 16 19 23 24 28 26 26 24 23 21 22 21 21 23 22 20 19 17 16 15 13 10 9 8 8 6 5 4 6 8 9 10 9 10 12 14
3 2 5 2 7 3 4 10 3 5 8 11 13 16 19 23 27 27 28 27 26 26 23 22 22 22 23 24 21 21 19 18 15 14 12 10 9 7 7 8 7 7 9 8 7 9 10 11 12
6 4 5 8 7 2 4 5 4 5 9 10 11 13 16 19 24 29 28 29 29 26 23 23 22 25 24 26 23 22 21 20 18 16 14 13 11 11 9 8 9 9 9 8 8 8 8 8 10
3 5 6 6 3 5 3 8 4 2 6 8 8 12 16 19 25 27 29 28 28 29 28 26 25 25 25 26 25 23 22 21 20 19 17 14 12 13 11 9 7 7 5 5 6 6 8 7 9
3 5 9 6 3 0 2 5 3 0 5 7 9 12 16 21 21 22 27 27 28 29 30 28 26 26 26 28 28 28 24 23 22 20 19 18 14 14 14 11 7 7 6 5 7 7 8 8 7
4 8 7 7 3 2 3 7 3 3 2 5 9 15 17 18 17 19 24 26 28 29 32 30 27 31 28 27 26 27 27 24 23 21 20 20 18 16 16 15 11 9 7 8 8 9 8 8 7
5 6 5 5 3 4 1 5 1 1 4 6 5 8 8 11 12 10 14 19 23 28 31 32 32 29 31 29 29 27 27 27 25 23 22 21 20 19 16 15 15 12 11 9 8 8 10 8 9
4 9 8 6 1 2 3 4 1 2 8 9 10 11 12 13 9 10 11 19 17 19 24 25 28 30 31 30 31 30 27 27 26 23 22 20 20 20 19 17 16 15 14 11 11 10 9 11 10
2 1 1 1 2 3 3 3 1 2 6 9 8 12 13 14 13 13 11 14 22 16 20 19 22 27 29 28 24 29 31 26 23 24 21 18 19 19 19 18 18 18 15 13 10 12 11 9 9
3 1 1 2 1 1 2 2 1 3 3 4 5 11 12 15 14 16 6 10 14 16 13 15 19 23 23 23 26 34 27 25 25 25 23 19 17 20 22 20 19 20 19 18 14 12 12 13 11
4 3 2 3 1 2 0 3 3 2 5 1 5 8 9 12 13 12 9 2 8 13 10 11 13 15 17 18 23 38 27 22 25 24 24 20 18 18 21 22 23 21 21 18 17 16 14 12 14
6 6 4 2 2 3 1 2 2 1 3 1 7 7 4 8 11 8 5 2 7 10 10 5 6 10 17 22 25 32 33 24 24 22 23 20 18 18 18 19 21 22 21 19 18 17 15 12 13
5 4 2 4 1 3 2 4 3 1 4 4 3 6 1 8 9 6 3 1 4 5 5 3 5 6 14 19 20 26 22 18 21 19 22 20 18 18 18 19 20 21 21 20 19 18 17 15 15
3 9 3 1 2 3 1 4 5 3 7 7 7 6 6 7 7 8 8 3 3 5 4 3 5 5 2 7 17 15 21 13 12 16 20 19 17 17 17 17 19 20 21 22 20 19 19 18 16
3 3 5 2 2 3 3 3 3 4 5 9 6 6 7 8 7 11 10 8 5 4 2 0 1 5 6 8 12 13 12 15 16 16 14 17 18 17 17 18 20 20 20 19 20 19 20 21 18
2 3 1 2 3 1 2 4 2 4 3 8 6 6 7 10 9 10 12 10 7 5 2 0 4 1 5 8 11 13 14 12 12 14 16 18 18 19 18 18 18 22 22 23 23 21 19 20 19
Wind_Direction
97 38 44 358 89 62 330 14 317 345 159 176 166 186 180 81 223 47 159 169 170 167 164 165 166 160 159 159 162 165 170 170 167 159 157 156 152 142 136 131 134 139 150 142 126 128 121 117 117
54 0 68 8 70 107 256 264 326 328 112 142 150 124 126 98 75 148 150 167 169 166 165 169 170 171 170 171 170 167 168 172 175 174 172 174 167 160 152 147 141 141 142 138 136 137 130 123 118
37 354 312 84 57 71 69 233 102 112 120 155 143 66 61 66 106 149 160 164 168 166 168 174 175 175 176 179 181 180 177 178 184 188 188 189 179 177 174 169 166 168 163 155 146 147 141 139 135
339 328 32 67 82 118 264 223 184 149 86 74 117 74 70 348 172 155 160 165 168 169 171 176 181 182 181 184 187 189 191 190 193 196 193 193 189 193 205 221 215 195 183 175 175 174 166 158 164
323 291 31 72 67 165 211 192 171 182 151 113 128 104 82 52 147 157 164 167 171 172 175 181 188 189 187 186 187 193 195 194 197 199 196 202 207 214 233 233 217 210 204 201 202 205 214 227 217
247 237 51 56 101 95 191 195 178 174 139 140 101 119 95 127 157 161 166 169 174 175 177 184 186 188 190 190 189 190 192 194 195 199 204 212 222 229 230 230 226 216 220 225 229 226 227 232 235
315 324 200 115 16 231 204 201 213 176 163 132 140 103 135 154 169 164 165 170 174 177 178 182 185 187 189 191 193 194 195 195 199 206 211 219 230 235 233 232 230 230 233 240 244 243 236 232 236
335 327 285 118 211 268 184 179 179 171 172 151 160 148 173 176 167 166 167 170 175 179 179 184 187 188 190 189 194 197 200 202 204 208 217 226 236 235 234 238 240 243 238 233 231 235 228 230 233
339 321 302 130 190 244 175 198 135 133 138 161 163 141 171 164 165 167 169 174 178 182 184 184 189 191 193 192 195 199 201 205 212 214 227 233 234 237 236 243 253 251 237 236 232 243 236 223 228
244 296 258 247 225 248 188 204 169 162 144 173 168 173 173 170 170 173 178 181 182 185 187 189 192 193 194 197 198 202 207 211 217 218 225 232 240 245 246 234 240 241 238 247 244 252 231 224 222
181 247 317 213 229 231 171 221 205 198 199 201 197 174 170 175 176 183 188 189 187 187 190 192 196 195 196 198 202 205 210 213 213 220 231 233 237 237 240 231 260 258 244 244 243 241 223 223 223
238 272 242 312 295 166 166 177 232 233 280 328 209 193 176 180 184 188 192 192 194 194 195 196 197 199 201 201 203 206 207 210 217 223 233 237 237 234 232 239 249 261 275 254 240 240 231 225 226
322 336 316 309 278 244 145 196 210 243 243 285 181 184 184 188 193 194 197 197 199 201 202 203 202 202 205 207 207 210 210 216 220 224 229 231 227 236 246 248 250 259 281 293 258 242 235 229 229
320 319 306 305 289 205 184 202 205 88 191 186 175 185 190 193 195 197 202 204 205 207 209 211 211 209 209 213 213 212 212 213 213 209 211 218 223 229 247 251 259 278 278 279 270 246 242 236 233
323 323 320 327 298 308 179 256 239 307 166 161 180 185 193 200 202 210 209 211 210 212 216 218 220 219 213 213 218 214 213 207 208 211 219 219 224 235 232 256 291 280 286 281 265 254 242 239 236
24 21 331 357 333 10 227 259 32 234 191 182 188 192 201 206 213 217 220 219 218 219 222 222 225 227 220 216 214 216 214 211 210 215 215 221 223 225 245 255 265 294 313 280 275 250 251 248 238
34 315 341 327 343 155 181 307 321 234 208 202 198 208 214 215 220 222 226 228 225 225 220 224 227 231 227 217 216 220 222 224 222 228 226 229 229 238 248 263 262 273 284 266 269 268 256 255 253
324 324 320 291 358 335 250 265 285 252 217 216 224 229 232 226 231 233 231 236 236 233 231 235 229 228 227 221 220 223 225 226 231 229 226 225 234 230 236 252 263 260 285 279 264 270 264 264 258
247 288 307 293 300 318 295 252 12 267 248 251 246 259 260 253 251 241 244 243 240 242 239 238 237 230 224 224 224 226 228 230 234 236 229 230 232 231 235 245 258 249 269 261 261 265 270 272 274
276 296 286 283 1 296 227 254 343 5 285 281 293 284 282 281 271 251 247 245 240 245 245 244 238 235 229 227 230 230 231 235 240 241 238 234 236 236 238 242 250 249 247 254 267 272 266 278 277
246 238 261 266 24 66 278 262 95 348 285 295 289 313 319 303 305 273 244 233 237 242 243 248 247 242 237 233 234 237 242 242 243 247 241 240 239 239 242 244 245 251 243 251 257 277 267 282 280
256 215 244 268 242 312 317 299 326 248 291 297 301 318 340 341 334 300 258 235 237 246 239 248 249 243 240 237 235 241 243 245 248 247 253 247 244 245 249 245 247 248 243 256 257 264 272 275 274
295 181 256 311 167 203 31 269 105 255 255 264 311 334 341 340 341 314 262 240 245 242 240 247 250 247 242 239 223 243 242 243 253 256 259 256 251 249 245 249 247 242 242 249 259 256 263 276 265
114 180 83 144 194 188 1 298 26 213 245 254 7 348 344 348 359 353 351 244 229 229 252 247 250 248 241 238 224 238 243 239 247 257 257 259 258 256 246 248 250 246 239 250 252 254 263 257 261
190 229 264 196 10 2 61 240 297 239 229 272 318 325 323 348 347 343 351 292 237 224 252 270 262 259 251 240 233 225 232 243 249 253 255 262 259 262 257 250 250 250 247 253 248 253 265 258 258
187 235 232 205 265 355 182 271 15 164 235 307 291 290 262 347 349 345 337 296 233 250 266 272 261 270 260 235 232 227 219 242 245 249 249 257 259 271 268 266 254 252 249 247 251 254 253 257 253
146 174 69 114 112 254 339 262 238 172 216 189 94 106 69 342 344 22 45 317 221 227 249 255 252 276 284 257 217 203 211 248 236 248 256 259 261 272 271 264 257 255 252 249 248 247 249 258 258
255 136 170 134 218 274 208 283 263 46 102 143 107 44 357 356 39 66 71 91 159 166 204 219 254 281 345 117 170 194 225 233 236 264 254 254 256 269 266 263 257 253 253 248 250 249 251 256 259
146 129 62 99 321 261 275 271 200 236 120 124 100 36 13 39 59 66 61 63 85 117 154 253 268 223 196 167 181 199 241 245 251 259 272 262 257 264 260 261 257 251 248 247 248 253 248 252 256
52 95 127 264 182 106 322 278 196 337 108 113 68 35 65 58 66 78 69 55 49 73 112 192 24 35 232 230 233 239 247 251 262 277 293 277 260 261 261 256 253 248 250 248 244 241 248 249 256